Location: Unspecified
(17.6330°N, 0.0000°E)
Time: 15:55:10
(UTC+00:00)

A-11 Canister half - Pass Details

Date: 23 June 2019
Orbit: 1514 x 1685 km, 47.2° (Epoch: 17 July)

Event Time Altitude Azimuth Distance (km) Brightness Sun altitude
Rises 08:52:15 0° 232° (SW) 4,930 11.3 45.3°
Reaches altitude 10° 08:55:29 10° 236° (SW) 3,941 10.9 46.1°
Maximum altitude 09:05:29 63° 315° (NW) 1,827 10.0 48.4°
Drops below altitude 10° 09:15:17 10° 35° (NE) 3,858 11.7 50.6°
Sets 09:18:26 0° 39° (NE) 4,823 12.1 51.4°
